When you browse on this site, cookies collect data to enhance your experience and personalize the content and advertising you see.
Visit our Privacy Policy to learn more. By continuing to use the site, you agree to this use of cookies and data.
  • In Belgium
  • List of Countries
  • For 7 days
  • Water Temperature
  • Weather Map
  • Weather Widgets
  • user-avatar
    Login

    Hourly Weather Elbasan

    Today, 20 October, Sunday

    Time Temperature Precipitation Wind Pressure Humidity
    00:00 +18°C° 0 mm 1 mps 738 mmHg 77%
    01:00 +18°C° 0 mm 1 mps 738 mmHg 76%
    02:00 +16°C° 0 mm 1 mps 738 mmHg 76%
    03:00 +16°C° 0 mm 1 mps 738 mmHg 76%
    04:00 +16°C° 0 mm 1 mps 738 mmHg 75%
    05:00 +18°C° 0 mm 1 mps 738 mmHg 73%
    06:00 +18°C° 0 mm 1 mps 738 mmHg 70%
    07:00 +19°C° 0 mm 1 mps 739 mmHg 68%
    08:00 +21°C° 0 mm 1 mps 739 mmHg 61%
    09:00 +23°C° 0 mm 1 mps 739 mmHg 54%
    10:00 +25°C° 0 mm 1 mps 739 mmHg 47%
    11:00 +25°C° 0 mm 1 mps 739 mmHg 45%
    12:00 +26°C° 0 mm 2 mps 739 mmHg 43%
    13:00 +27°C° 0 mm 2 mps 739 mmHg 40%
    14:00 +26°C° 0 mm 2 mps 739 mmHg 45%
    15:00 +25°C° 0 mm 2 mps 739 mmHg 50%
    16:00 +24°C° 0 mm 2 mps 738 mmHg 55%
    17:00 +22°C° 0 mm 1 mps 738 mmHg 62%
    18:00 +21°C° 0 mm 1 mps 738 mmHg 69%
    19:00 +17°C° 0 mm 0 mps 739 mmHg 76%
    20:00 +17°C° 0 mm 0 mps 739 mmHg 76%
    21:00 +17°C° 0 mm 0 mps 739 mmHg 76%
    22:00 +17°C° 0 mm 0 mps 739 mmHg 75%
    23:00 +18°C° 0 mm 1 mps 739 mmHg 75%

    Tomorrow, 21 October, Monday

    Time Temperature Precipitation Wind Pressure Humidity
    00:00 +18°C° 0 mm 1 mps 739 mmHg 75%
    01:00 +18°C° 0 mm 1 mps 739 mmHg 75%
    02:00 +18°C° 0 mm 1 mps 739 mmHg 74%
    03:00 +18°C° 0 mm 1 mps 739 mmHg 73%
    04:00 +18°C° 0 mm 1 mps 739 mmHg 72%
    05:00 +18°C° 0 mm 1 mps 739 mmHg 70%
    06:00 +19°C° 0 mm 1 mps 739 mmHg 67%
    07:00 +19°C° 0 mm 1 mps 739 mmHg 64%
    08:00 +21°C° 0 mm 1 mps 740 mmHg 57%
    09:00 +24°C° 0 mm 1 mps 740 mmHg 50%
    10:00 +26°C° 0 mm 1 mps 740 mmHg 43%
    11:00 +27°C° 0 mm 1 mps 740 mmHg 41%
    12:00 +27°C° 0 mm 2 mps 740 mmHg 39%
    13:00 +28°C° 0 mm 2 mps 739 mmHg 37%
    14:00 +27°C° 0 mm 2 mps 739 mmHg 41%
    15:00 +26°C° 0 mm 2 mps 739 mmHg 45%
    16:00 +25°C° 0 mm 2 mps 738 mmHg 49%
    17:00 +23°C° 0 mm 1 mps 739 mmHg 55%
    18:00 +22°C° 0 mm 1 mps 739 mmHg 60%
    19:00 +20°C° 0 mm 1 mps 739 mmHg 66%
    20:00 +20°C° 0 mm 1 mps 739 mmHg 65%
    21:00 +20°C° 0 mm 1 mps 739 mmHg 64%
    22:00 +19°C° 0 mm 1 mps 739 mmHg 63%
    23:00 +19°C° 0 mm 1 mps 739 mmHg 62%

    Day after tomorrow, 22 October, Tuesday

    Time Temperature Precipitation Wind Pressure Humidity
    00:00 +19°C° 0 mm 1 mps 739 mmHg 61%
    01:00 +19°C° 0 mm 1 mps 739 mmHg 59%
    02:00 +19°C° 0 mm 1 mps 739 mmHg 59%
    03:00 +18°C° 0 mm 1 mps 738 mmHg 58%
    04:00 +18°C° 0 mm 1 mps 738 mmHg 58%
    05:00 +18°C° 0 mm 2 mps 738 mmHg 57%
    06:00 +18°C° 0 mm 2 mps 738 mmHg 56%
    07:00 +19°C° 0 mm 2 mps 739 mmHg 55%
    08:00 +21°C° 0 mm 2 mps 739 mmHg 48%
    09:00 +25°C° 0 mm 1 mps 739 mmHg 41%
    10:00 +27°C° 0 mm 1 mps 739 mmHg 34%
    11:00 +28°C° 0 mm 1 mps 739 mmHg 32%
    12:00 +29°C° 0 mm 2 mps 739 mmHg 30%
    13:00 +29°C° 0 mm 2 mps 739 mmHg 28%
    14:00 +28°C° 0 mm 2 mps 738 mmHg 33%
    15:00 +27°C° 0 mm 2 mps 738 mmHg 38%
    16:00 +26°C° 0 mm 1 mps 738 mmHg 42%
    17:00 +24°C° 0 mm 1 mps 738 mmHg 46%
    18:00 +22°C° 0 mm 1 mps 738 mmHg 49%
    19:00 +21°C° 0 mm 1 mps 738 mmHg 52%
    20:00 +20°C° 0 mm 1 mps 738 mmHg 51%
    21:00 +20°C° 0 mm 1 mps 738 mmHg 50%
    22:00 +19°C° 0 mm 2 mps 738 mmHg 49%
    23:00 +19°C° 0 mm 2 mps 738 mmHg 49%

    23 October, Wednesday

    Time Temperature Precipitation Wind Pressure Humidity
    00:00 +18°C° 0 mm 2 mps 738 mmHg 49%
    01:00 +18°C° 0 mm 2 mps 738 mmHg 49%
    02:00 +18°C° 0 mm 2 mps 738 mmHg 50%
    03:00 +17°C° 0 mm 2 mps 738 mmHg 51%
    04:00 +17°C° 0 mm 2 mps 738 mmHg 51%
    05:00 +17°C° 0 mm 2 mps 738 mmHg 51%
    06:00 +18°C° 0 mm 2 mps 738 mmHg 51%
    07:00 +18°C° 0 mm 2 mps 737 mmHg 51%
    08:00 +21°C° 0 mm 2 mps 738 mmHg 44%
    09:00 +24°C° 0 mm 1 mps 738 mmHg 38%
    10:00 +27°C° 0 mm 1 mps 738 mmHg 31%
    11:00 +28°C° 0 mm 1 mps 737 mmHg 29%
    12:00 +28°C° 0 mm 1 mps 737 mmHg 27%
    13:00 +29°C° 0 mm 2 mps 737 mmHg 25%
    14:00 +28°C° 0 mm 2 mps 737 mmHg 30%
    15:00 +27°C° 0 mm 2 mps 736 mmHg 35%
    16:00 +25°C° 0 mm 1 mps 736 mmHg 40%
    17:00 +24°C° 0 mm 1 mps 736 mmHg 43%
    18:00 +22°C° 0 mm 1 mps 736 mmHg 46%
    19:00 +20°C° 0 mm 1 mps 736 mmHg 49%
    20:00 +20°C° 0 mm 1 mps 736 mmHg 48%
    21:00 +19°C° 0 mm 2 mps 737 mmHg 46%
    22:00 +19°C° 0 mm 2 mps 737 mmHg 45%
    23:00 +18°C° 0 mm 2 mps 737 mmHg 45%

    24 October, Thursday

    Time Temperature Precipitation Wind Pressure Humidity
    00:00 +18°C° 0 mm 2 mps 737 mmHg 45%
    01:00 +17°C° 0 mm 2 mps 736 mmHg 44%
    02:00 +17°C° 0 mm 2 mps 736 mmHg 44%
    03:00 +17°C° 0 mm 2 mps 736 mmHg 44%
    04:00 +16°C° 0 mm 2 mps 736 mmHg 44%
    05:00 +17°C° 0 mm 2 mps 736 mmHg 44%
    06:00 +17°C° 0 mm 2 mps 736 mmHg 43%
    07:00 +17°C° 0 mm 2 mps 736 mmHg 43%
    08:00 +20°C° 0 mm 2 mps 736 mmHg 36%
    09:00 +24°C° 0 mm 1 mps 736 mmHg 30%
    10:00 +27°C° 0 mm 1 mps 736 mmHg 23%
    11:00 +27°C° 0 mm 1 mps 736 mmHg 22%
    12:00 +28°C° 0 mm 2 mps 736 mmHg 22%
    13:00 +28°C° 0 mm 2 mps 735 mmHg 21%
    14:00 +27°C° 0 mm 2 mps 735 mmHg 28%
    15:00 +26°C° 0 mm 2 mps 735 mmHg 36%
    16:00 +24°C° 0 mm 1 mps 734 mmHg 43%
    17:00 +22°C° 0 mm 1 mps 734 mmHg 49%
    18:00 +21°C° 0 mm 1 mps 734 mmHg 55%
    19:00 +17°C° 0 mm 0 mps 734 mmHg 60%
    20:00 +19°C° 0 mm 1 mps 734 mmHg 57%
    21:00 +18°C° 0 mm 1 mps 735 mmHg 53%
    22:00 +18°C° 0 mm 1 mps 735 mmHg 50%
    23:00 +18°C° 0 mm 1 mps 735 mmHg 48%

    25 October, Friday

    Time Temperature Precipitation Wind Pressure Humidity
    00:00 +18°C° 0 mm 1 mps 734 mmHg 45%
    01:00 +16°C° 0 mm 1 mps 734 mmHg 43%
    02:00 +16°C° 0 mm 1 mps 734 mmHg 42%
    03:00 +16°C° 0 mm 1 mps 734 mmHg 41%
    04:00 +16°C° 0 mm 2 mps 734 mmHg 40%
    05:00 +16°C° 0 mm 2 mps 734 mmHg 40%
    06:00 +16°C° 0 mm 2 mps 734 mmHg 40%
    07:00 +16°C° 0 mm 2 mps 734 mmHg 39%
    08:00 +20°C° 0 mm 1 mps 734 mmHg 35%
    09:00 +22°C° 0 mm 1 mps 734 mmHg 30%
    10:00 +25°C° 0 mm 1 mps 734 mmHg 25%
    11:00 +25°C° 0 mm 1 mps 734 mmHg 24%
    12:00 +26°C° 0 mm 1 mps 734 mmHg 22%
    13:00 +27°C° 0 mm 1 mps 734 mmHg 21%
    14:00 +26°C° 0 mm 1 mps 734 mmHg 27%
    15:00 +25°C° 0 mm 1 mps 733 mmHg 33%
    16:00 +23°C° 0 mm 1 mps 733 mmHg 39%
    17:00 +22°C° 0 mm 1 mps 733 mmHg 44%
    18:00 +20°C° 0 mm 1 mps 733 mmHg 49%
    19:00 +16°C° 0 mm 0 mps 733 mmHg 55%
    20:00 +18°C° 0 mm 1 mps 734 mmHg 52%
    21:00 +18°C° 0 mm 1 mps 734 mmHg 49%
    22:00 +18°C° 0 mm 1 mps 734 mmHg 47%
    23:00 +18°C° 0 mm 1 mps 734 mmHg 45%
    Show more